VELOX-II (41171 NORAD) Tracking and Keplerian Element Data

This shows tracking and keplerian element data for the satellite.

Feedback or suggestion? Click here.




ElementValue
Catalog41171
NameVELOX-II
Epoch Orbit47042
Epoch Day160.16767921
Epoch Year2024
RAAN125.1916
Inclination14.9865
Eccentricity0.000388
Argument of Perigee269.4679
Mean Anonmoly90.5205
Mean Motion15.71250111
Decay Rate0.00259458
L11 41171U 15077F 24160.16767921 .00259458 00000+0 18813-2 0 9991
L22 41171 14.9865 125.1916 0003880 269.4679 90.5205 15.71250111470428



Live tracking and technical data element details for VELOX-II (NORAD 41171). VELOX-II can be tracked NOW for your location showing map with azimuth and elevation plus other details from your city location.







IsCatalogInMostPopularTable: catalog: 41171, numindb: 311
Update: records affected: 1



GetName: 41171 VELOX-II

Hit Count: updated at: Sat, 17 May 2025 09:19:42 GMT